Terug naar catalogus

STARLINK-36518

ActiefCommunicatieVLEO
NORAD 67453·PAYLOAD·🇺🇸 United States

Gelanceerd Jan 14, 2026 vanaf Cape Canaveral Space Force Station

Loading…

Volgende Passages (komende 24 uur)

TLE

VersSource: CelesTrak SupGP

Epoch: Sep 15, 2026, 03:10 UTC

1 67453C 26008J   26258.13243056 -.00035708  00000+0 -12936-2 0  2583
2 67453  43.0027 215.4985 0001307 269.7540  73.5592 15.27588283    12

Volg STARLINK-36518 in realtime met AllMySat

Download on the App Store